Regional Weather Roundup
Issued by NWS New Orleans/Baton Rouge, LA

Home | Current Version | Previous Version | Text Only | Print | Product List | Glossary On
Versions: 1 2 3 4 5 6 7 8 9 10 11 12 13 14 15 16 17 18 19 20 21 22 23 24 25 26 27 28 29 30 31 32 33 34 35 36 37 38 39 40 41 42 43 44 45 46 47 48 49 50
000
ASUS44 KLIX 301510
RWRLIX
NEW ORLEANS REGIONAL WEATHER ROUNDUP
NATIONAL WEATHER SERVICE NEW ORLEANS LA
1000 AM CDT TUE SEP 30 2014

NOTE: "FAIR" INDICATES FEW OR NO CLOUDS BELOW 12,000 FEET WITH NO
      SIGNIFICANT WEATHER AND/OR OBSTRUCTIONS TO VISIBILITY.
      SKY/WX - SKY CONDITION AND SIGNIFICANT WEATHER.
      TMP - AIR TEMPERATURE.     DP    - DEWPOINT TEMPERATURE.
      RH  - RELATIVE HUMIDITY.   PRES  - PRESSURE.
      HI  - HEAT INDEX.          WCI   - WIND CHILL INDEX.

*  THESE STATIONS ARE NOT NWS OR FAA STATIONS AND ARE NOT UNDER
   NWS QUALITY CONTROL.

LAZ038-040-048-061>063-065>067-069-301600-
SOUTHEAST LOUISIANA

CITY           SKY/WX    TMP DP  RH WIND       PRES   REMARKS
N.O. AUDUBON     N/A     84  75  74 MISG        N/A
N.O. INTL ARPT PTSUNNY   81  71  71 E5        29.91R
N.O. LAKEFRONT SUNNY     80  73  79 E8        29.92R
N.O. DOWNTOWN* PTSUNNY   81  72  74 CALM      29.92R
SLIDELL        SUNNY     80  71  74 SE5       29.91R
BATON ROUGE    SUNNY     82  71  69 VRB3      29.92R
BOOTHVILLE     SUNNY     82  75  79 NE6       29.90R
BELLE CHASSE   PTSUNNY   81  72  74 E7        29.91R
BOGALUSA*        N/A     82  71  70 E3        29.94R
GALLIANO*      NOT AVBL
NEW ROADS*       N/A     80  73  79 CALM      29.92S
GONZALES*        N/A     82  74  78 CALM      29.91R
HAMMOND*       SUNNY     82  70  65 E3        29.93R
HOUMA*         PTSUNNY  N/A N/A N/A N7        29.91R
PORT FOURCHON* MOSUNNY   82  73  74 E7        29.94R

$$

MSZ070-080>082-301600-
SOUTHERN MISSISSIPPI

CITY           SKY/WX    TMP DP  RH WIND       PRES   REMARKS
MCCOMB         SUNNY     80  70  71 CALM      29.94R
GULFPORT       SUNNY     79  71  76 VRB5      29.91R
BILOXI         SUNNY     79  72  78 E6        29.92R
PASCAGOULA     CLOUDY    76  70  82 NE9       29.92S
STENNIS ARPT*  MOSUNNY   81  70  69 VRB5      29.92R

$$

COASTAL OBSERVATIONS
LAKE AND NEARSHORE STATIONS

STATION/POSITION TIME  TEMP    WIND        PRES    WAVE
                       AIR SEA DIR/SP/G            HT/PER
                 (UTC) (F)     (DEG/KT/KT) (MB)    (FT/S)
PASCAGOULA       1500   77      60/  9/ 11 1012.6
WAVELAND YACHT   1500   80      70/  2/  3 1012.4
GRAND ISLE       1500   80 80   50/  5/  8 1013.2
SOUTHWEST PASS   1500   81 85   80/  5/  5 1012.8
NEW CANAL        1500   77 77   60/  8/  9 1013.2
SHELL BEACH      1500   79 74   60/  9/ 10 1012.6

OFFSHORE STATIONS

STATION/POSITION TIME  TEMP    WIND        PRES    WAVE
                       AIR SEA DIR/SP/G            HT/PER
                 (UTC) (F)     (DEG/KT/KT) (MB)    (FT/S)
64 S DAUPHIN ISL 1406   80 82   80/ 10/ 12 1012.7    2/ 5

$$



USA.gov is the U.S. government's official web portal to all federal, state and local government web resources and services.